Covington, KY

1:25 PM EDT on April 25, 2018 (GMT -0400)
Cincinnati-Northern KY International

Weather History for KCVG - February, 2014

Change the Weather History Date:

Saturday, February 22, 2014

  Actual Average Record
Temperature  
Mean Temperature 48 °F 36 °F  
Max Temperature 60 °F 45 °F 71 °F (1922)
Min Temperature 36 °F 28 °F -10 °F (1963)
Degree Days  
Heating Degree Days 17 29  
Month to date heating degree days 782 689  
Since 1 July heating degree days 4005 3661  
Cooling Degree Days 0 0  
Month to date cooling degree days 0 0  
Year to date cooling degree days 0 0  
Moisture  
Dew Point 23 °F    
Average Humidity 47    
Maximum Humidity 70    
Minimum Humidity 23    
Precipitation  
Precipitation 0.00 in 0.09 in 2.19 in (1944)
Month to date precipitation 2.70 2.21  
Year to date precipitation 5.50 5.21  
Snow  
Snow 0.00 in 0.20 in 2.00 in (1993)
Month to date snowfall 9.8 5.4  
Since 1 July snowfall 43.0 17.5  
Snow Depth 0.00 in    
Sea Level Pressure  
Sea Level Pressure 30.00 in    
Wind  
Wind Speed 9 mph (SW)    
Max Wind Speed 21 mph    
Max Gust Speed 24 mph    
Visibility 10 miles    
Events      
T = Trace of Precipitation, MM = Missing Value Source: NWS Daily Summary

Daily Weather History Graph

Daily Weather History Graph

Search for Another Location

Airport or City:

Astronomy

Feb. 22, 2014 Rise Set
Actual Time 7:21 AM EST 6:23 PM EST
Civil Twilight 6:53 AM EST 6:50 PM EST
Nautical Twilight 6:22 AM EST 7:21 PM EST
Astronomical Twilight 5:52 AM EST 7:52 PM EST
Moon 1:14 AM EST (2/22) 11:35 AM EST (2/22)
Length of Visible Light 11h 56m
Length of Day
11h 02m
Waning Gibbous, 50% of the Moon is Illuminated
Feb 22
Waning Gibbous
Feb 22
Last Quarter
Mar 1
New
Mar 8
First Quarter
Mar 16
Full

Hourly Weather History & Observations

Time (EST) Temp. Windchill Dew Point Humidity Pressure Visibility Wind Dir Wind Speed Gust Speed Precip Events Conditions
12:52 AM 37.0 °F 29.3 °F 17.1 °F 44% 29.97 in 10.0 mi South 11.5 mph - N/A   Clear
1:52 AM 37.9 °F 30.9 °F 18.0 °F 45% 29.97 in 10.0 mi SSW 10.4 mph - N/A   Clear
2:52 AM 37.9 °F 30.9 °F 18.0 °F 45% 29.96 in 10.0 mi SSW 10.4 mph - N/A   Mostly Cloudy
3:52 AM 37.0 °F 31.6 °F 18.0 °F 46% 29.97 in 10.0 mi SSW 6.9 mph - N/A   Clear
4:52 AM 37.9 °F 32.7 °F 19.0 °F 47% 30.00 in 10.0 mi SW 6.9 mph - N/A   Partly Cloudy
5:52 AM 39.9 °F 33.4 °F 19.9 °F 45% 30.00 in 10.0 mi SSW 10.4 mph - N/A   Clear
6:52 AM 39.0 °F 32.3 °F 21.0 °F 49% 30.03 in 10.0 mi SW 10.4 mph - N/A   Clear
7:52 AM 39.0 °F 34.0 °F 21.0 °F 49% 30.06 in 10.0 mi SW 6.9 mph - N/A   Scattered Clouds
8:52 AM 39.9 °F 35.1 °F 21.9 °F 49% 30.08 in 10.0 mi SSW 6.9 mph - N/A   Scattered Clouds
9:52 AM 45.0 °F 40.1 °F 23.0 °F 42% 30.09 in 10.0 mi SW 9.2 mph - N/A   Scattered Clouds
10:52 AM 48.0 °F - 25.0 °F 41% 30.08 in 10.0 mi SW 9.2 mph - N/A   Scattered Clouds
11:52 AM 53.1 °F - 25.0 °F 34% 30.06 in 10.0 mi Variable 5.8 mph - N/A   Partly Cloudy
1:52 PM 57.0 °F - 25.0 °F 29% 30.00 in 10.0 mi SW 11.5 mph - N/A   Partly Cloudy
3:52 PM 59.0 °F - 25.0 °F 27% 29.96 in 10.0 mi WSW 11.5 mph 20.7 mph N/A   Partly Cloudy
4:52 PM 59.0 °F - 21.9 °F 24% 29.94 in 10.0 mi WSW 10.4 mph - N/A   Scattered Clouds
5:52 PM 55.0 °F - 23.0 °F 29% 29.94 in 10.0 mi SW 5.8 mph - N/A   Mostly Cloudy
6:52 PM 52.0 °F - 21.9 °F 31% 29.94 in 10.0 mi Calm Calm - N/A   Mostly Cloudy
7:52 PM 48.0 °F - 25.0 °F 41% 29.94 in 10.0 mi Calm Calm - N/A   Mostly Cloudy
8:52 PM 43.0 °F - 24.1 °F 47% 29.95 in 10.0 mi Calm Calm - N/A   Mostly Cloudy
9:23 PM 42.8 °F 35.4 °F 32.0 °F 66% 29.98 in 10.0 mi North 15.0 mph - N/A   Mostly Cloudy
9:52 PM 41.0 °F 32.8 °F 32.0 °F 70% 30.00 in 10.0 mi North 16.1 mph - N/A   Mostly Cloudy
10:52 PM 41.0 °F 33.1 °F 28.9 °F 62% 30.01 in 10.0 mi NNE 15.0 mph - N/A   Mostly Cloudy
11:52 PM 39.0 °F 31.0 °F 30.0 °F 70% 30.01 in 10.0 mi NNE 13.8 mph - N/A   Mostly Cloudy